VOZ932 YBBN-YSSY

Flight info

Callsign VOZ932
Flight time 1h 9m
Altitude 38000
Route BN H91 IGDAM H652 TESAT
Aircraft B737/M-SDE2E3FGHIRWXY/LB1

Departure

Time 2026-04-21 00:06
Airport Brisbane International Airport (YBBN)

Arrival

Time 2026-04-21 01:15
Airport Sydney Kingsford Smith International Airport (YSSY)
Time Latitude Longitude Altitude Speed Heading
2026-04-20 23:34 -27.38716 153.11945 20 ft 0 kts 335°
2026-04-20 23:55 -27.38725 153.11950 20 ft 3 kts 340°
2026-04-20 23:55 -27.38744 153.11956 22 ft 3 kts 335°
2026-04-20 23:56 -27.38758 153.11966 20 ft 3 kts 312°
2026-04-20 23:56 -27.38768 153.11984 20 ft 3 kts 272°
2026-04-20 23:56 -27.38766 153.12003 20 ft 3 kts 258°
2026-04-20 23:56 -27.38762 153.12025 22 ft 2 kts 259°
2026-04-20 23:57 -27.38760 153.12045 20 ft 3 kts 285°
2026-04-20 23:57 -27.38769 153.12064 25 ft 3 kts 317°
2026-04-20 23:57 -27.38783 153.12078 20 ft 3 kts 319°
2026-04-20 23:57 -27.38798 153.12093 24 ft 3 kts 319°
2026-04-20 23:58 -27.38805 153.12100 23 ft 0 kts 319°
2026-04-21 00:00 -27.38801 153.12097 20 ft 2 kts 328°
2026-04-21 00:00 -27.38775 153.12102 20 ft 5 kts 43°
2026-04-21 00:00 -27.38767 153.12141 22 ft 6 kts 93°
2026-04-21 00:01 -27.38777 153.12192 20 ft 8 kts 104°
2026-04-21 00:01 -27.38792 153.12257 20 ft 9 kts 104°
2026-04-21 00:01 -27.38776 153.12316 22 ft 9 kts 39°
2026-04-21 00:01 -27.38744 153.12371 20 ft 9 kts 95°
2026-04-21 00:02 -27.38759 153.12444 20 ft 10 kts 77°
2026-04-21 00:02 -27.38713 153.12491 21 ft 10 kts 28°
2026-04-21 00:02 -27.38648 153.12529 21 ft 11 kts 27°
2026-04-21 00:02 -27.38586 153.12564 21 ft 9 kts 27°
2026-04-21 00:03 -27.38527 153.12598 21 ft 10 kts 26°
2026-04-21 00:03 -27.38461 153.12635 23 ft 11 kts 27°
2026-04-21 00:03 -27.38385 153.12678 22 ft 13 kts 26°
2026-04-21 00:03 -27.38294 153.12728 21 ft 15 kts 27°
2026-04-21 00:04 -27.38206 153.12781 21 ft 14 kts 28°
2026-04-21 00:04 -27.38126 153.12828 21 ft 12 kts 27°
2026-04-21 00:04 -27.38054 153.12872 21 ft 11 kts 40°
2026-04-21 00:04 -27.38049 153.12945 22 ft 10 kts 116°
2026-04-21 00:05 -27.38094 153.13013 20 ft 11 kts 141°
2026-04-21 00:05 -27.38176 153.13026 21 ft 17 kts 200°
2026-04-21 00:05 -27.38480 153.12853 21 ft 83 kts 207°
2026-04-21 00:05 -27.39167 153.12456 26 ft 136 kts 207°
2026-04-21 00:06 -27.40061 153.11927 401 ft 147 kts 206°
2026-04-21 00:06 -27.41000 153.11398 943 ft 157 kts 206°
2026-04-21 00:06 -27.41998 153.10946 1564 ft 152 kts 185°
2026-04-21 00:06 -27.43087 153.11185 1956 ft 176 kts 155°
2026-04-21 00:07 -27.44233 153.11891 2519 ft 197 kts 150°
2026-04-21 00:07 -27.45471 153.12712 3124 ft 216 kts 152°
2026-04-21 00:07 -27.46849 153.13482 3947 ft 222 kts 154°
2026-04-21 00:07 -27.48213 153.14216 5044 ft 216 kts 154°
2026-04-21 00:08 -27.49596 153.14917 5941 ft 223 kts 164°
2026-04-21 00:08 -27.51210 153.14908 6412 ft 249 kts 193°
2026-04-21 00:08 -27.52941 153.14353 7072 ft 264 kts 195°
2026-04-21 00:08 -27.54727 153.13818 8036 ft 267 kts 193°
2026-04-21 00:09 -27.56510 153.13227 9138 ft 267 kts 198°
2026-04-21 00:09 -27.58270 153.12511 10254 ft 268 kts 199°
2026-04-21 00:09 -27.60089 153.11769 10806 ft 291 kts 198°
2026-04-21 00:09 -27.62082 153.10970 11071 ft 319 kts 198°
2026-04-21 00:10 -27.64254 153.10203 11733 ft 331 kts 195°
2026-04-21 00:10 -27.66492 153.09469 12629 ft 336 kts 195°
2026-04-21 00:10 -27.68760 153.08733 13565 ft 341 kts 195°
2026-04-21 00:10 -27.71068 153.07977 14417 ft 347 kts 195°
2026-04-21 00:11 -27.73374 153.07215 15278 ft 352 kts 195°
2026-04-21 00:11 -27.75735 153.06429 16243 ft 354 kts 195°
2026-04-21 00:11 -27.78107 153.05637 17181 ft 357 kts 195°
2026-04-21 00:11 -27.80512 153.04833 18066 ft 362 kts 195°
2026-04-21 00:12 -27.82938 153.03978 18888 ft 367 kts 198°
2026-04-21 00:12 -27.85344 153.02966 19688 ft 370 kts 200°
2026-04-21 00:12 -27.87742 153.01893 20538 ft 371 kts 200°
2026-04-21 00:12 -27.90126 153.00816 21353 ft 374 kts 200°
2026-04-21 00:13 -27.92556 152.99728 22139 ft 377 kts 200°
2026-04-21 00:13 -27.95009 152.98640 22903 ft 379 kts 200°
2026-04-21 00:13 -27.97484 152.97550 23655 ft 383 kts 200°
2026-04-21 00:13 -27.99976 152.96457 24294 ft 385 kts 200°
2026-04-21 00:14 -28.02454 152.95371 24908 ft 388 kts 200°
2026-04-21 00:14 -28.04982 152.94264 25530 ft 390 kts 200°
2026-04-21 00:14 -28.07517 152.93152 26125 ft 392 kts 200°
2026-04-21 00:14 -28.10068 152.92032 26689 ft 395 kts 200°
2026-04-21 00:15 -28.12639 152.90893 27236 ft 397 kts 200°
2026-04-21 00:15 -28.15226 152.89741 27799 ft 400 kts 200°
2026-04-21 00:15 -28.17821 152.88584 28344 ft 402 kts 200°
2026-04-21 00:15 -28.20401 152.87434 28904 ft 403 kts 200°
2026-04-21 00:16 -28.23005 152.86272 29660 ft 400 kts 200°
2026-04-21 00:16 -28.25580 152.85122 30487 ft 395 kts 200°
2026-04-21 00:16 -28.28129 152.83984 31140 ft 392 kts 200°
2026-04-21 00:16 -28.30668 152.82850 31673 ft 392 kts 200°
2026-04-21 00:17 -28.32360 152.82095 31946 ft 393 kts 201°
2026-04-21 00:17 -28.34913 152.80954 32406 ft 394 kts 201°
2026-04-21 00:17 -28.38281 152.79449 33240 ft 389 kts 201°
2026-04-21 00:17 -28.39980 152.78689 33673 ft 387 kts 201°
2026-04-21 00:18 -28.42446 152.77585 34192 ft 386 kts 201°
2026-04-21 00:18 -28.47473 152.75335 34292 ft 390 kts 201°
2026-04-21 00:19 -28.52651 152.73014 34301 ft 408 kts 201°
2026-04-21 00:19 -28.58016 152.70607 34300 ft 420 kts 201°
2026-04-21 00:20 -28.63429 152.68175 34303 ft 418 kts 201°
2026-04-21 00:20 -28.68841 152.65741 34293 ft 417 kts 201°
2026-04-21 00:21 -28.74247 152.63306 34297 ft 416 kts 201°
2026-04-21 00:21 -28.79607 152.60890 34291 ft 416 kts 201°
2026-04-21 00:22 -28.84988 152.58462 34295 ft 415 kts 201°
2026-04-21 00:22 -28.90375 152.56039 34291 ft 415 kts 200°
2026-04-21 00:23 -28.95722 152.53637 34298 ft 415 kts 201°
2026-04-21 00:23 -29.01106 152.51214 34287 ft 414 kts 201°
2026-04-21 00:24 -29.06455 152.48803 34290 ft 414 kts 201°
2026-04-21 00:24 -29.11825 152.46380 34300 ft 414 kts 200°
2026-04-21 00:25 -29.17188 152.43957 34302 ft 414 kts 200°
2026-04-21 00:25 -29.22554 152.41530 34297 ft 415 kts 200°
2026-04-21 00:26 -29.27941 152.39091 34291 ft 416 kts 201°
2026-04-21 00:26 -29.33299 152.36662 34300 ft 416 kts 200°
2026-04-21 00:27 -29.38696 152.34212 34302 ft 416 kts 200°
2026-04-21 00:27 -29.44076 152.31767 34287 ft 416 kts 200°
2026-04-21 00:28 -29.49422 152.29334 34290 ft 416 kts 200°
2026-04-21 00:28 -29.54800 152.26880 34297 ft 415 kts 200°
2026-04-21 00:29 -29.60173 152.24426 34293 ft 416 kts 200°
2026-04-21 00:29 -29.65560 152.21960 34298 ft 415 kts 200°
2026-04-21 00:30 -29.70892 152.19519 34302 ft 415 kts 200°
2026-04-21 00:30 -29.76261 152.17059 34300 ft 415 kts 200°
2026-04-21 00:31 -29.81630 152.14596 34305 ft 415 kts 200°
2026-04-21 00:31 -29.87013 152.12123 34304 ft 416 kts 200°
2026-04-21 00:32 -29.92397 152.09647 34301 ft 417 kts 200°
2026-04-21 00:32 -29.97791 152.07164 34297 ft 417 kts 200°
2026-04-21 00:33 -30.03148 152.04693 34307 ft 417 kts 200°
2026-04-21 00:33 -30.08547 152.02201 34309 ft 417 kts 200°
2026-04-21 00:34 -30.13945 151.99707 34305 ft 417 kts 200°
2026-04-21 00:34 -30.19305 151.97227 34308 ft 417 kts 200°
2026-04-21 00:35 -30.24699 151.94727 34311 ft 417 kts 200°
2026-04-21 00:35 -30.30092 151.92227 34295 ft 417 kts 200°
2026-04-21 00:36 -30.35487 151.89721 34308 ft 417 kts 200°
2026-04-21 00:36 -30.40847 151.87228 34314 ft 417 kts 200°
2026-04-21 00:37 -30.46234 151.84718 34328 ft 417 kts 200°
2026-04-21 00:37 -30.51633 151.82199 34320 ft 417 kts 200°
2026-04-21 00:38 -30.57022 151.79682 34318 ft 417 kts 200°
2026-04-21 00:38 -30.62404 151.77165 34315 ft 417 kts 200°
2026-04-21 00:39 -30.67788 151.74644 34333 ft 417 kts 200°
2026-04-21 00:39 -30.73170 151.72121 34315 ft 417 kts 200°
2026-04-21 00:40 -30.78549 151.69597 34323 ft 417 kts 200°
2026-04-21 00:40 -30.83786 151.67134 34298 ft 394 kts 200°
2026-04-21 00:41 -30.88796 151.64776 34326 ft 386 kts 200°
2026-04-21 00:41 -30.93802 151.62421 34318 ft 389 kts 200°
2026-04-21 00:42 -30.98919 151.60010 34340 ft 404 kts 200°
2026-04-21 00:42 -31.04242 151.57499 34337 ft 419 kts 200°
2026-04-21 00:43 -31.09629 151.54951 34323 ft 419 kts 200°
2026-04-21 00:43 -31.15036 151.52391 34317 ft 418 kts 200°
2026-04-21 00:44 -31.20424 151.49838 34330 ft 417 kts 200°
2026-04-21 00:44 -31.25809 151.47283 34335 ft 417 kts 200°
2026-04-21 00:45 -31.33845 151.43464 34332 ft 417 kts 200°
2026-04-21 00:45 -31.39220 151.40910 34347 ft 417 kts 200°
2026-04-21 00:46 -31.44600 151.38487 34346 ft 417 kts 199°
2026-04-21 00:46 -31.50034 151.36092 34338 ft 417 kts 199°
2026-04-21 00:47 -31.55476 151.33677 34346 ft 417 kts 199°
2026-04-21 00:47 -31.60898 151.31257 34338 ft 417 kts 199°
2026-04-21 00:48 -31.66289 151.28843 34342 ft 417 kts 199°
2026-04-21 00:48 -31.71710 151.26413 34350 ft 417 kts 199°
2026-04-21 00:49 -31.77144 151.23975 34342 ft 417 kts 199°
2026-04-21 00:49 -31.82571 151.21537 34356 ft 417 kts 199°
2026-04-21 00:50 -31.87996 151.19096 34351 ft 417 kts 199°
2026-04-21 00:50 -31.93394 151.16665 34355 ft 417 kts 199°
2026-04-21 00:51 -31.98831 151.14223 34360 ft 417 kts 199°
2026-04-21 00:51 -32.04265 151.11789 34363 ft 417 kts 199°
2026-04-21 00:52 -32.09699 151.09352 34362 ft 418 kts 199°
2026-04-21 00:52 -32.15105 151.06922 34361 ft 418 kts 199°
2026-04-21 00:53 -32.20545 151.04472 34371 ft 418 kts 199°
2026-04-21 00:53 -32.25986 151.02020 34363 ft 417 kts 200°
2026-04-21 00:54 -32.31387 150.99581 34362 ft 417 kts 200°
2026-04-21 00:54 -32.36812 150.97129 34365 ft 417 kts 200°
2026-04-21 00:55 -32.42240 150.94673 34367 ft 417 kts 200°
2026-04-21 00:55 -32.44925 150.93457 33926 ft 414 kts 199°
2026-04-21 00:55 -32.47666 150.92487 33194 ft 410 kts 191°
2026-04-21 00:56 -32.50485 150.92006 32358 ft 408 kts 185°
2026-04-21 00:56 -32.53329 150.91881 31453 ft 410 kts 179°
2026-04-21 00:56 -32.56142 150.92222 30613 ft 411 kts 173°
2026-04-21 00:56 -32.58953 150.92740 29854 ft 407 kts 172°
2026-04-21 00:57 -32.61734 150.93274 29119 ft 401 kts 172°
2026-04-21 00:57 -32.64478 150.93796 28427 ft 396 kts 172°
2026-04-21 00:57 -32.67181 150.94299 27742 ft 390 kts 172°
2026-04-21 00:57 -32.69858 150.94787 27059 ft 388 kts 172°
2026-04-21 00:58 -32.72520 150.95268 26390 ft 387 kts 172°
2026-04-21 00:58 -32.75146 150.95741 25726 ft 386 kts 172°
2026-04-21 00:58 -32.77800 150.96219 25057 ft 383 kts 172°
2026-04-21 00:58 -32.80434 150.96692 24371 ft 380 kts 172°
2026-04-21 00:59 -32.83046 150.97156 23635 ft 377 kts 172°
2026-04-21 00:59 -32.85632 150.97614 22894 ft 374 kts 172°
2026-04-21 00:59 -32.88193 150.98067 22196 ft 370 kts 172°
2026-04-21 00:59 -32.90693 150.98510 21547 ft 366 kts 172°
2026-04-21 01:00 -32.93210 150.98957 20674 ft 367 kts 172°
2026-04-21 01:00 -32.95743 150.99407 19902 ft 367 kts 172°
2026-04-21 01:00 -32.98264 150.99855 19203 ft 365 kts 172°
2026-04-21 01:00 -33.00779 151.00302 18497 ft 363 kts 172°
2026-04-21 01:01 -33.03277 151.00747 17761 ft 360 kts 172°
2026-04-21 01:01 -33.05716 151.01182 17093 ft 356 kts 172°
2026-04-21 01:01 -33.08155 151.01617 16433 ft 352 kts 172°
2026-04-21 01:01 -33.10569 151.02048 15797 ft 349 kts 172°
2026-04-21 01:02 -33.12966 151.02476 15166 ft 345 kts 172°
2026-04-21 01:02 -33.15336 151.02899 14539 ft 343 kts 172°
2026-04-21 01:02 -33.17689 151.03319 13858 ft 341 kts 172°
2026-04-21 01:02 -33.20031 151.03738 13181 ft 338 kts 172°
2026-04-21 01:03 -33.22315 151.04146 12538 ft 334 kts 172°
2026-04-21 01:03 -33.24601 151.04560 11893 ft 331 kts 171°
2026-04-21 01:03 -33.26877 151.04993 11234 ft 330 kts 171°
2026-04-21 01:03 -33.29135 151.05430 10617 ft 328 kts 171°
2026-04-21 01:04 -33.31329 151.05854 10434 ft 312 kts 171°
2026-04-21 01:04 -33.33418 151.06256 10282 ft 296 kts 171°
2026-04-21 01:04 -33.35408 151.06638 10137 ft 282 kts 172°
2026-04-21 01:04 -33.36676 151.06882 10054 ft 273 kts 172°
2026-04-21 01:05 -33.38519 151.07235 9794 ft 266 kts 171°
2026-04-21 01:05 -33.40344 151.07429 9459 ft 261 kts 180°
2026-04-21 01:05 -33.42152 151.07366 9086 ft 259 kts 182°
2026-04-21 01:05 -33.43952 151.07264 8611 ft 260 kts 181°
2026-04-21 01:06 -33.45761 151.07190 8180 ft 260 kts 182°
2026-04-21 01:06 -33.47569 151.07069 7797 ft 259 kts 182°
2026-04-21 01:06 -33.49360 151.06936 7404 ft 258 kts 182°
2026-04-21 01:06 -33.51170 151.06790 6935 ft 260 kts 182°
2026-04-21 01:07 -33.52971 151.06805 6505 ft 258 kts 172°
2026-04-21 01:07 -33.54719 151.07189 6220 ft 252 kts 167°
2026-04-21 01:07 -33.56399 151.07637 5952 ft 247 kts 167°
2026-04-21 01:07 -33.58062 151.08067 5679 ft 242 kts 167°
2026-04-21 01:08 -33.59691 151.08487 5428 ft 237 kts 167°
2026-04-21 01:08 -33.61302 151.08905 5182 ft 236 kts 167°
2026-04-21 01:08 -33.62891 151.09319 4917 ft 231 kts 167°
2026-04-21 01:08 -33.64449 151.09726 4652 ft 226 kts 168°
2026-04-21 01:09 -33.65976 151.10124 4386 ft 222 kts 168°
2026-04-21 01:09 -33.67484 151.10518 4133 ft 219 kts 167°
2026-04-21 01:09 -33.68961 151.10913 3879 ft 216 kts 168°
2026-04-21 01:09 -33.70420 151.11303 3621 ft 213 kts 167°
2026-04-21 01:10 -33.71848 151.11669 3367 ft 211 kts 168°
2026-04-21 01:10 -33.73286 151.12034 3132 ft 209 kts 168°
2026-04-21 01:10 -33.74703 151.12401 3034 ft 205 kts 168°
2026-04-21 01:10 -33.76061 151.12755 3010 ft 193 kts 168°
2026-04-21 01:11 -33.77324 151.13084 3012 ft 178 kts 168°
2026-04-21 01:11 -33.78490 151.13388 2942 ft 170 kts 168°
2026-04-21 01:11 -33.79652 151.13691 2744 ft 171 kts 168°
2026-04-21 01:11 -33.80796 151.13990 2496 ft 167 kts 169°
2026-04-21 01:12 -33.81888 151.14275 2280 ft 153 kts 168°
2026-04-21 01:12 -33.82907 151.14541 2092 ft 148 kts 169°
2026-04-21 01:12 -33.83920 151.14805 1892 ft 149 kts 170°
2026-04-21 01:12 -33.84928 151.15067 1691 ft 145 kts 169°
2026-04-21 01:13 -33.85899 151.15321 1487 ft 140 kts 170°
2026-04-21 01:13 -33.86849 151.15568 1298 ft 138 kts 169°
2026-04-21 01:13 -33.87777 151.15811 1152 ft 136 kts 171°
2026-04-21 01:13 -33.88654 151.16040 944 ft 119 kts 169°
2026-04-21 01:14 -33.89438 151.16248 738 ft 115 kts 170°
2026-04-21 01:14 -33.90233 151.16469 585 ft 120 kts 172°
2026-04-21 01:14 -33.91051 151.16663 417 ft 117 kts 171°
2026-04-21 01:14 -33.91847 151.16888 273 ft 117 kts 171°
2026-04-21 01:15 -33.92627 151.17078 121 ft 117 kts 171°
2026-04-21 01:15 -33.93400 151.17279 28 ft 106 kts 171°
2026-04-21 01:15 -33.93978 151.17429 26 ft 53 kts 168°
2026-04-21 01:15 -33.94262 151.17527 29 ft 36 kts 157°
2026-04-21 01:16 -33.94431 151.17633 29 ft 17 kts 143°
2026-04-21 01:16 -33.94485 151.17684 29 ft 2 kts 138°
2026-04-21 01:16 -33.94486 151.17688 29 ft 0 kts 107°
2026-04-21 01:16 -33.94482 151.17692 29 ft 1 kts 50°
2026-04-21 01:17 -33.94451 151.17707 29 ft 9 kts 20°
2026-04-21 01:17 -33.94381 151.17733 29 ft 11 kts 13°
2026-04-21 01:17 -33.94306 151.17727 29 ft 11 kts 345°
2026-04-21 01:17 -33.94235 151.17704 28 ft 10 kts 344°
2026-04-21 01:18 -33.94162 151.17680 28 ft 11 kts 346°
2026-04-21 01:18 -33.94087 151.17658 27 ft 11 kts 346°
2026-04-21 01:18 -33.94014 151.17637 27 ft 10 kts 348°
2026-04-21 01:18 -33.93949 151.17622 28 ft 9 kts 349°
2026-04-21 01:19 -33.93891 151.17608 28 ft 9 kts 349°
2026-04-21 01:19 -33.93865 151.17629 28 ft 5 kts 83°
2026-04-21 01:19 -33.93854 151.17686 28 ft 9 kts 69°
2026-04-21 01:19 -33.93818 151.17754 29 ft 10 kts 34°
2026-04-21 01:20 -33.93740 151.17785 29 ft 13 kts 14°
2026-04-21 01:20 -33.93669 151.17805 29 ft 6 kts 13°
2026-04-21 01:20 -33.93659 151.17831 29 ft 4 kts 91°
2026-04-21 01:20 -33.93659 151.17871 29 ft 3 kts 90°
2026-04-21 01:21 -33.93659 151.17885 29 ft 0 kts 90°